FW5913 Weather Reports


time (UTC)temp
C
wind
direction
speed
KPH
gust
KPH
rain 1hr
cm
rain 24hr
cm
rain mn
cm
humidity
%
barometer
mb
20260506143457 13 307 4.8 6.4 0.00 2.69 1.52 86 1006.5
20260506142455 13 301 4.8 9.7 0.00 2.69 1.52 85 1006.5
20260506141453 14 7 4.8 6.4 0.00 2.69 1.52 84 1006.6
20260506140451 13 327 4.8 6.4 0.00 2.69 1.52 85 1006.5
20260506135450 13 304 6.4 8.0 0.00 2.69 1.52 85 1006.6
20260506134449 13 313 4.8 8.0 0.00 2.69 1.52 86 1006.6
20260506133447 13 306 6.4 11.3 0.00 2.69 1.52 87 1006.6
20260506132446 13 328 4.8 6.4 0.00 2.87 1.52 85 1006.7
20260506131443 13 292 4.8 6.4 0.00 3.02 1.52 84 1006.6
20260506130442 14 313 6.4 12.9 0.00 3.07 1.52 85 1006.6
20260506125441 14 303 3.2 9.7 0.00 3.12 1.52 84 1006.5
20260506124439 15 352 9.7 17.7 0.00 3.12 1.52 84 1006.4
20260506123436 14 13 8.0 9.7 0.00 3.12 1.52 85 1006.4
20260506122434 14 328 6.4 12.9 0.00 3.12 1.52 85 1006.4
20260506121433 15 330 9.7 14.5 0.00 3.12 1.52 79 1006.5
20260506120430 15 112 4.8 8.0 0.00 3.17 1.52 78 1006.5
20260506115448 15 103 4.8 9.7 0.00 3.20 1.52 79 1006.4
20260506114425 15 157 1.6 6.4 0.00 3.20 1.52 80 1006.4
20260506113423 14 95 8.0 12.9 0.00 3.20 1.52 79 1006.4
20260506112421 14 111 9.7 14.5 0.00 3.20 1.52 80 1006.4
20260506111418 14 136 6.4 14.5 0.00 3.20 1.52 79 1006.4
20260506110415 13 175 4.8 8.0 0.00 3.20 1.52 82 1006.4
20260506105434 14 91 11.3 14.5 0.00 3.20 1.52 83 1006.4
20260506104412 14 118 6.4 8.0 0.00 3.20 1.52 83 1006.4
20260506103430 14 110 8.0 14.5 0.00 3.20 1.52 84 1006.4
20260506102408 13 147 11.3 16.1 0.00 3.20 1.52 87 1006.3
20260506101407 13 109 9.7 11.3 0.00 3.20 1.52 87 1006.4
20260506100446 13 113 11.3 16.1 0.00 3.20 1.52 88 1006.3
20260506095405 13 134 6.4 17.7 0.00 3.20 1.52 88 1006.2
20260506094403 13 124 8.0 17.7 0.00 3.20 1.52 88 1006.1
20260506093402 13 118 9.7 16.1 0.00 3.20 1.52 88 1006.1
20260506092401 13 110 9.7 12.9 0.00 3.20 1.52 88 1006.0
20260506091359 13 109 6.4 9.7 0.00 3.20 1.52 85 1006.1
20260506090357 14 123 1.6 3.2 0.00 3.20 1.52 84 1006.0
20260506085355 13 129 9.7 14.5 0.00 3.20 1.52 85 1005.9
20260506084354 13 132 6.4 12.9 0.00 3.20 1.52 86 1005.9
20260506083352 13 110 8.0 11.3 0.00 3.20 1.52 87 1005.8
20260506082351 13 113 3.2 6.4 0.00 3.20 1.52 88 1005.8
20260506081349 13 113 9.7 9.7 0.00 3.20 1.52 88 1005.8
20260506080347 13 110 4.8 11.3 0.00 3.20 1.52 86 1005.7
20260506073342 12 92 6.4 9.7 0.00 3.20 1.52 91 1005.6
20260506072341 12 117 6.4 6.4 0.00 3.20 1.52 93 1005.7
20260506071339 11 112 8.0 9.7 0.05 3.20 1.52 94 1005.6
20260506070338 11 110 8.0 12.9 0.08 3.20 1.52 94 1005.6
20260506062330 11 148 4.8 6.4 0.15 3.20 1.52 95 1005.6
20260506061328 11 175 1.6 4.8 0.15 3.15 1.50 95 1005.6
20260506060327 11 159 3.2 11.3 0.18 3.12 1.45 95 1005.4
20260506051318 10 282 1.6 1.6 0.15 3.02 1.35 96 1005.6
20260506050317 10 251 1.6 3.2 0.10 2.95 1.27 97 1005.6
20260506044354 10 183 0.0 1.6 0.08 2.92 1.24 97 1005.6
20260506043313 10 286 1.6 1.6 0.05 2.90 1.22 97 1005.6
20260506042311 10 13 1.6 1.6 0.03 2.87 1.19 97 1005.6
20260506041310 10 352 1.6 1.6 0.00 2.84 1.19 97 1005.8
20260506040309 10 282 1.6 1.6 0.00 2.84 1.17 97 1005.8
20260506035308 10 289 1.6 3.2 0.00 2.84 1.17 97 1005.8
20260506034307 10 282 0.0 1.6 0.00 2.84 1.17 97 1005.8
20260506033306 10 260 1.6 1.6 0.00 2.87 1.17 97 1005.9
20260506032306 10 4 3.2 4.8 0.00 2.87 1.17 97 1006.1
20260506031303 10 326 1.6 1.6 0.03 2.87 1.17 97 1006.2
20260506030323 10 355 3.2 3.2 0.03 2.87 1.17 97 1006.3
20260506025305 10 301 1.6 3.2 0.03 2.87 1.17 96 1006.3
20260506024300 10 2 3.2 4.8 0.05 2.87 1.17 96 1006.4
20260506023258 10 310 1.6 1.6 0.10 2.87 1.17 96 1006.4
20260506022256 10 279 1.6 1.6 0.18 2.87 1.17 96 1006.5
20260506021255 10 220 0.0 0.0 0.23 2.87 1.17 97 1006.5
20260506020254 10 348 0.0 1.6 0.28 2.87 1.14 97 1006.6
20260506015312 10 1 1.6 1.6 0.33 2.87 1.14 97 1006.5
20260506014251 10 240 1.6 1.6 0.38 2.82 1.12 96 1006.6
20260506013249 10 228 0.0 1.6 0.38 2.77 1.07 96 1006.7
20260506012247 10 253 0.0 1.6 0.36 2.69 0.99 96 1006.8
20260506011245 11 300 1.6 1.6 0.36 2.64 0.91 97 1006.8
20260506010244 11 335 1.6 3.2 0.38 2.59 0.86 97 1006.9
20260506005242 11 294 1.6 4.8 0.38 2.51 0.81 96 1007.0
20260506004240 11 279 3.2 3.2 0.41 2.46 0.74 96 1007.1
20260506003235 11 14 3.2 3.2 0.38 2.41 0.69 96 1007.1
20260506002233 11 277 1.6 4.8 0.36 2.34 0.61 96 1007.3
20260506001241 11 288 3.2 6.4 0.30 2.26 0.56 96 1007.4
20260506000219 11 283 3.2 4.8 0.25 2.18 0.48 95 1007.6
20260505235218 11 323 3.2 8.0 0.23 2.13 0.41 95 1007.7
20260505234216 11 322 3.2 4.8 0.20 2.06 0.36 94 1007.8
20260505233215 12 301 1.6 3.2 0.18 2.01 0.30 95 1007.8
20260505232213 12 167 8.0 16.1 0.18 1.98 0.28 94 1007.8
20260505231211 12 172 3.2 6.4 0.20 1.98 0.25 94 1007.8
20260505230210 12 165 4.8 6.4 0.20 1.93 0.20 95 1007.9
20260505225208 12 210 3.2 3.2 0.23 1.91 0.18 95 1007.9
20260505224207 12 298 1.6 3.2 0.23 1.85 0.15 96 1008.0
20260505223206 12 276 1.6 6.4 0.25 1.83 0.10 96 1008.1
20260505222225 12 308 3.2 4.8 0.30 1.80 0.08 96 1008.0
20260505221203 12 296 3.2 3.2 0.33 1.78 0.05 97 1008.1
20260505220202 12 290 3.2 4.8 0.36 1.73 0.00 96 1008.1
20260505215716 12 293 3.2 4.8 0.36 1.70 1.70 96 1008.1
20260505214714 12 317 3.2 4.8 0.36 1.65 1.65 96 1008.1
20260505213712 12 285 1.6 3.2 0.38 1.60 1.60 97 1008.3
20260505212650 12 263 3.2 3.2 0.38 1.55 1.55 97 1008.4
20260505211648 12 235 1.6 1.6 0.36 1.47 1.47 96 1008.3
20260505210727 12 341 3.2 3.2 0.33 1.40 1.40 96 1008.2
20260505205645 12 1 3.2 3.2 0.33 1.35 1.35 95 1008.2
20260505204643 11 231 0.0 0.0 0.30 1.27 1.27 96 1008.4
20260505203641 11 22 1.6 1.6 0.30 1.22 1.22 96 1008.4
20260505202640 12 165 1.6 1.6 0.33 1.17 1.17 95 1008.4
20260505201639 12 25 3.2 4.8 0.33 1.12 1.12 95 1008.4
20260505200637 12 267 1.6 1.6 0.28 1.07 1.07 95 1008.4
20260505195635 12 301 1.6 1.6 0.23 1.02 1.02 95 1008.3
20260505194634 12 304 1.6 3.2 0.18 0.97 0.97 95 1008.2
20260505193652 12 326 3.2 6.4 0.13 0.91 0.91 94 1008.1
20260505192631 12 295 3.2 3.2 0.08 0.86 0.86 94 1008.0
20260505191629 12 312 4.8 6.4 0.05 0.81 0.81 93 1007.9
20260505190628 12 319 4.8 4.8 0.03 0.79 0.79 93 1007.9
20260505185626 12 318 3.2 6.4 0.03 0.79 0.79 92 1007.8
20260505184624 12 305 3.2 8.0 0.03 0.79 0.79 93 1007.9
20260505183622 12 333 3.2 4.8 0.03 0.76 0.76 93 1008.0
20260505182621 12 348 3.2 4.8 0.03 0.76 0.76 93 1008.0
20260505181619 12 310 3.2 3.2 0.03 0.76 0.76 93 1008.0
20260505180618 13 272 3.2 4.8 0.00 0.76 0.76 92 1007.9
20260505175611 13 308 1.6 3.2 0.00 0.76 0.76 92 1008.0
20260505174610 13 343 3.2 4.8 0.00 0.76 0.76 91 1007.9
20260505173609 13 357 3.2 4.8 0.00 0.76 0.76 90 1008.1
20260505172607 13 1 3.2 4.8 0.00 0.74 0.74 87 1007.9
20260505171606 14 0.0 0.0 0.00 0.74 0.74 86 1008.0
20260505170625 14 0.0 0.0 0.00 0.74 0.74 87 1008.0
20260505165604 13 0.0 0.0 0.00 0.74 0.74 88 1008.0
20260505164602 13 0.0 0.0 0.00 0.74 0.74 87 1008.1
20260505163601 14 10 4.8 6.4 0.05 0.74 0.74 86 1008.3
20260505162600 14 20 6.4 14.5 0.10 0.74 0.74 85 1008.3
20260505161558 14 61 6.4 8.0 0.15 0.74 0.74 86 1008.3
20260505160556 14 45 4.8 16.1 0.18 0.74 0.74 85 1008.4
20260505152550 15 354 8.0 11.3 0.08 0.64 0.64 87 1008.8
20260505151609 15 347 4.8 11.3 0.03 0.58 0.58 85 1008.9
20260505150547 16 14 3.2 9.7 0.00 0.56 0.56 86 1008.9